Zurück zum Katalog

DIGUI TONGXIN SHIYAN WEI.

AktivMilitärPO
NORAD 52716·PAYLOAD·🇨🇳 China
Dieser Satellitenname wurde noch nicht durch offizielle Quellen bestätigt.

Gestartet May 20, 2022 von Jiuquan Satellite Launch Center

Loading…

Nächste Überflüge (nächste 24 Stunden)

TLE

AktuellSource: Space-Track

Epoche: Sep 14, 2026, 15:13 UTC

1 52716U 22056A   26257.63448149  .00000107  00000-0  55443-4 0  9990
2 52716  86.0098 344.1933 0020779 108.1997 252.1446 14.04424845221444

Verfolge DIGUI TONGXIN SHIYAN WEI. in Echtzeit mit AllMySat

Download on the App Store